Change the Weather History Date:

Saturday, February 16, 2013

  Actual Average Record
Temperature  
Mean Temperature 34 °F -  
Max Temperature 35 °F 39 °F 44 °F (1998)
Min Temperature 33 °F 29 °F 15 °F (1997)
Degree Days  
Heating Degree Days 31    
Moisture  
Dew Point 33 °F    
Average Humidity 95    
Maximum Humidity 100    
Minimum Humidity 90    
Precipitation  
Precipitation 0.01 in - - ()
Sea Level Pressure  
Sea Level Pressure 30.28 in    
Wind  
Wind Speed 4 mph ()    
Max Wind Speed 6 mph    
Max Gust Speed -    
Visibility 2.0 miles    
Events      
Averages and records for this station are not official NWS values.
T = Trace of Precipitation, MM = Missing Value Source: Averaged Metar Reports

Daily Weather History Graph

Daily Weather History Graph

Search for Another Location

Airport or City:

Trip Planner

Search our weather history database for the weather conditions in past years. The results will help you decide how hot, cold, wet, or windy it might be!

Date:

Astronomy

Feb. 16, 2013 Rise Set
Actual Time 7:46 AM CET 5:23 PM CET
Civil Twilight 7:06 AM CET 6:03 PM CET
Nautical Twilight 6:21 AM CET 6:48 PM CET
Astronomical Twilight 5:37 AM CET 7:32 PM CET
Moon 9:24 AM CET (2/16) 12:29 AM CET (2/16)
Length of Visible Light 10h 57m
Length of Day
9h 37m
Waxing Crescent, 37% of the Moon is Illuminated
Feb 16
Waxing Crescent
Feb 17
First Quarter
Feb 25
Full
Mar 4
Last Quarter
Mar 11
New

Hourly Weather History & Observations

Time (CET) Temp. Windchill Dew Point Humidity Pressure Visibility Wind Dir Wind Speed Gust Speed Precip Events Conditions
12:20 AM 33.8 °F 29.6 °F 32.0 °F 93% 30.21 in 1.9 mi ESE 4.6 mph - N/A   Mostly Cloudy
12:50 AM 33.8 °F 29.6 °F 32.0 °F 93% 30.21 in 1.9 mi ESE 4.6 mph - N/A   Mostly Cloudy
1:00 AM 34 °F - 32 °F 90% 30.22 in 2 mi East 4.6 mph - -   Mist
1:20 AM 33.8 °F 28.6 °F 32.0 °F 93% 30.21 in 1.9 mi East 5.8 mph - N/A   Mostly Cloudy
1:50 AM 33.8 °F 28.6 °F 32.0 °F 93% 30.21 in 1.9 mi East 5.8 mph - N/A   Mostly Cloudy
2:20 AM 33.8 °F 30.8 °F 32.0 °F 93% 30.21 in 1.9 mi ESE 3.5 mph - N/A   Mostly Cloudy
2:50 AM 33.8 °F 28.6 °F 32.0 °F 93% 30.21 in 1.9 mi ESE 5.8 mph - N/A   Mostly Cloudy
3:20 AM 33.8 °F 29.6 °F 32.0 °F 93% 30.21 in 1.9 mi ESE 4.6 mph - N/A   Mostly Cloudy
3:50 AM 33.8 °F - 32.0 °F 93% 30.21 in 1.6 mi East 1.2 mph - N/A   Mostly Cloudy
4:00 AM 34 °F - 32 °F 91% 30.23 in 2 mi Calm Calm - -   Mist
4:20 AM 33.8 °F - 32.0 °F 93% 30.21 in 1.6 mi ENE 2.3 mph - N/A   Mostly Cloudy
4:50 AM 33.8 °F - 32.0 °F 93% 30.21 in 1.2 mi ENE 2.3 mph - N/A   Mostly Cloudy
5:20 AM 33.8 °F 30.8 °F 32.0 °F 93% 30.24 in 1.2 mi East 3.5 mph - N/A   Mostly Cloudy
5:50 AM 33.8 °F 30.8 °F 32.0 °F 93% 30.24 in 1.2 mi ENE 3.5 mph - N/A   Mostly Cloudy
6:20 AM 33.8 °F 30.8 °F 32.0 °F 93% 30.24 in 1.2 mi East 3.5 mph - N/A   Mostly Cloudy
6:50 AM 33.8 °F 29.6 °F 32.0 °F 93% 30.24 in 1.2 mi East 4.6 mph - N/A   Mostly Cloudy
7:00 AM 34 °F - 33 °F 94% 30.25 in 1 mi East 4.6 mph - -   Mist
7:20 AM 33.8 °F 30.8 °F 32.0 °F 93% 30.24 in 0.9 mi East 3.5 mph - N/A   Mostly Cloudy
7:50 AM 33.8 °F 30.8 °F 33.8 °F 100% 30.24 in 0.9 mi ESE 3.5 mph - N/A   Mostly Cloudy
8:20 AM 33.8 °F 30.8 °F 33.8 °F 100% 30.27 in 0.9 mi East 3.5 mph - N/A   Mostly Cloudy
8:50 AM 33.8 °F 30.8 °F 33.8 °F 100% 30.27 in 0.7 mi East 3.5 mph - N/A   Mostly Cloudy
9:20 AM 33.8 °F 30.8 °F 33.8 °F 100% 30.27 in 0.9 mi East 3.5 mph - N/A   Mostly Cloudy
9:50 AM 33.8 °F 30.8 °F 33.8 °F 100% 30.27 in 1.0 mi East 3.5 mph - N/A   Mostly Cloudy
10:00 AM 34 °F - 33 °F 96% 30.29 in 1 mi East 5.8 mph - -   Mist
10:20 AM 33.8 °F 29.6 °F 33.8 °F 100% 30.27 in 1.1 mi East 4.6 mph - N/A   Mostly Cloudy
10:50 AM 33.8 °F 30.8 °F 33.8 °F 100% 30.27 in 1.4 mi ESE 3.5 mph - N/A   Mostly Cloudy
11:20 AM 33.8 °F 29.6 °F 33.8 °F 100% 30.30 in 2.2 mi East 4.6 mph - N/A   Mostly Cloudy
11:50 AM 33.8 °F 29.6 °F 33.8 °F 100% 30.30 in 3.1 mi ESE 4.6 mph - N/A   Overcast
12:20 PM 35.6 °F 31.7 °F 33.8 °F 93% 30.30 in 3.1 mi East 4.6 mph - N/A   Overcast
12:50 PM 35.6 °F 31.7 °F 33.8 °F 93% 30.30 in 3.7 mi East 4.6 mph - N/A   Overcast
1:00 PM 35 °F - 33 °F 92% 30.31 in 4 mi East 3.5 mph - -   Mist
1:20 PM 35.6 °F 31.7 °F 33.8 °F 93% 30.30 in 3.1 mi East 4.6 mph - N/A   Overcast
1:50 PM 35.6 °F 31.7 °F 33.8 °F 93% 30.30 in 3.1 mi East 4.6 mph - N/A   Overcast
2:20 PM 35.6 °F 31.7 °F 33.8 °F 93% 30.30 in 2.8 mi ESE 4.6 mph - N/A   Mostly Cloudy
2:50 PM 35.6 °F 32.8 °F 33.8 °F 93% 30.30 in 3.1 mi East 3.5 mph - N/A   Mostly Cloudy
3:20 PM 35.6 °F 31.7 °F 33.8 °F 93% 30.30 in 3.1 mi East 4.6 mph - N/A   Mostly Cloudy
3:50 PM 33.8 °F 29.6 °F 33.8 °F 100% 30.30 in 2.8 mi ESE 4.6 mph - N/A   Mostly Cloudy
4:00 PM 35 °F - 33 °F 91% 30.30 in 3 mi ESE 4.6 mph - -   Mist
4:20 PM 33.8 °F 30.8 °F 33.8 °F 100% 30.30 in 2.5 mi ESE 3.5 mph - N/A   Overcast
4:50 PM 33.8 °F 30.8 °F 32.0 °F 93% 30.30 in 2.5 mi East 3.5 mph - N/A   Overcast
5:20 PM 33.8 °F 29.6 °F 32.0 °F 93% 30.30 in 2.2 mi East 4.6 mph - N/A   Overcast
5:50 PM 33.8 °F 29.6 °F 32.0 °F 93% 30.30 in 2.2 mi East 4.6 mph - N/A   Overcast
6:20 PM 33.8 °F 28.6 °F 32.0 °F 93% 30.30 in 2.2 mi East 5.8 mph - N/A   Overcast
6:50 PM 33.8 °F 29.6 °F 32.0 °F 93% 30.30 in 2.2 mi East 4.6 mph - N/A   Overcast
7:00 PM 34 °F - 33 °F 94% 30.32 in 2 mi ESE 4.6 mph - -   Mist
7:20 PM 33.8 °F - 33.8 °F 100% 30.33 in 2.2 mi ESE 2.3 mph - N/A   Overcast
7:50 PM 33.8 °F - 33.8 °F 100% 30.33 in 2.2 mi SE 2.3 mph - N/A   Mostly Cloudy
8:20 PM 33.8 °F - 33.8 °F 100% 30.33 in 2.2 mi South 2.3 mph - N/A   Mostly Cloudy
8:50 PM 33.8 °F 30.8 °F 33.8 °F 100% 30.33 in 2.2 mi SSE 3.5 mph - N/A   Overcast
9:20 PM 33.8 °F 30.8 °F 32.0 °F 93% 30.33 in 2.2 mi SSE 3.5 mph - N/A   Overcast
9:50 PM 33.8 °F - 32.0 °F 93% 30.33 in 2.2 mi SSW 2.3 mph - N/A   Overcast
10:00 PM 33 °F - 32 °F 96% 30.34 in 2 mi SSW 3.5 mph - -   Mist
10:20 PM 33.8 °F - 32.0 °F 93% 30.33 in 1.9 mi SSW 2.3 mph - N/A   Overcast
10:50 PM 33.8 °F - 32.0 °F 93% 30.33 in 1.9 mi SSE 2.3 mph - N/A   Overcast
11:20 PM 33.8 °F 30.8 °F 32.0 °F 93% 30.33 in 2.2 mi SSE 3.5 mph - N/A   Overcast
11:50 PM 33.8 °F - 32.0 °F 93% 30.33 in 2.2 mi SSE 2.3 mph - N/A   Overcast